Lexington Weather

Lexington, Massachusetts, USA

48°F
10/22/2019 3:09am 
  • Lexington Conditions: Haze, Overcast
  • Temperature: 47.5°F / 8.6°CWarmer 1.3°F than last hour.
  • Dew Point: 46.0°FIncreased 1.4°Fsince last hour.
  • Relative Humidity: 95%Increased 1.0% since last hour.
  • Wind: Calm, 10-min avg: Calm, gust: None
  • Barometer: 30.12 in Steady
  • Visibility: 1½ miles
  • Rain Today: 0.00 in
  •   

Regional Weather Roundup
for Boston, MA

        
000
ASUS41 KBOX 220510
RWRBOX

REGIONAL WEATHER ROUNDUP
NATIONAL WEATHER SERVICE BOSTON/NORTON MA
100 AM EDT TUE OCT 22 2019

NOTE:  "FAIR" INDICATES FEW OR NO CLOUDS BELOW 12,000 FEET WITH NO 
SIGNIFICANT WEATHER AND/OR OBSTRUCTIONS TO VISIBILITY.

MAZALL-220600-
EASTERN MASSACHUSETTS
  
CITY           SKY/WX    TMP DP  RH WIND       PRES   REMARKS
BOSTON         FAIR      52  47  83 N8        30.15F                  
BEVERLY        FOG       41  40  96 N6        30.15F VSB 1/4          
LAWRENCE       MOCLDY    43  42  97 CALM      30.19R                  
BEDFORD        FAIR      42  37  82 NW3       30.16S                  
BLUE HILL      NOT AVBL                                               
NORWOOD        HAZE      41  35  79 CALM      30.16R VSB 1/2          
MARSHFIELD     FAIR      55  52  88 NE5G12    30.14S                  
PLYMOUTH       FAIR      48  47  96 NE3       30.13F                  
TAUNTON        FOG       39  36  89 CALM      30.13F VSB 3/4          
NEW BEDFORD    FAIR      44  41  89 CALM      30.13S FOG              
$$

MAZALL-220600-
CAPE COD AND THE ISLANDS
  
CITY           SKY/WX    TMP DP  RH WIND       PRES   REMARKS
FALMOUTH       CLEAR     50  50 100 NE8       30.13                   
HYANNIS        FAIR      51  48  89 N3        30.12F                  
CHATHAM        NOT AVBL                                               
PROVINCETOWN   FAIR      53  50  89 NE8         N/A                   
NANTUCKET      FAIR      53  52  96 NE12      30.11S                  
MARTHAS VNYRD  FAIR      52  50  93 NE8       30.12S                  
$$
 
MAZALL-220600-
CENTRAL AND WESTERN MASSACHUSETTS
  
CITY           SKY/WX    TMP DP  RH WIND       PRES   REMARKS
WORCESTER      FAIR      47  42  83 N6        30.16R                  
FITCHBURG      FAIR      42  40  92 CALM      30.18S                  
ORANGE         FAIR      42  40  92 CALM      30.17F                  
SPRINGFIELD    FAIR      44  43  95 CALM      30.14S                  
WESTFIELD      FAIR      45  42  89 CALM      30.16S                  
NORTH ADAMS    FAIR      51  44  77 E7        30.13S                  
PITTSFIELD     FAIR      44  41  89 NE5       30.13S                  
$$
 
RIZALL-220600-
RHODE ISLAND
  
CITY           SKY/WX    TMP DP  RH WIND       PRES   REMARKS
PROVIDENCE     FAIR      48  47  96 N6        30.15S                  
NEWPORT        FAIR      50  46  86 N5        30.13R                  
BLOCK ISLAND   FAIR      54  50  86 NE13      30.12S                  
SMITHFIELD     FAIR     N/A N/A N/A N5        30.15R                  
WESTERLY       FAIR      51  48  89 N5        30.13S                  
$$
 
CTZALL-220600-
CONNECTICUT
  
CITY           SKY/WX    TMP DP  RH WIND       PRES   REMARKS
BRADLEY INTL   MOCLDY    47  44  90 CALM      30.15F                  
HARTFORD       FAIR      47  45  93 CALM      30.15F                  
BRIDGEPORT     FAIR      54  42  64 NE8       30.13F                  
DANBURY        FAIR      43  42  97 CALM      30.15S                  
GROTON         FAIR      48  42  80 CALM      30.14R                  
NEW HAVEN      FAIR      48  44  86 NE3       30.14F                  
CHESTER        FAIR      48  41  76 N5        30.14S                  
MERIDEN        FAIR      47  44  90 CALM      30.15S                  
WILLIMANTIC    FAIR      43  43 100 CALM      30.16S                  
OXFORD         FAIR      50  42  74 E7        30.15S                  
$$

MEZ002-015-021-024-NHZ003-005-008-011-012-014-VTZ005-008-220600-
NORTHERN NEW ENGLAND
  
CITY           SKY/WX    TMP DP  RH WIND       PRES   REMARKS
PORTLAND ME    FAIR      41  39  93 CALM      30.19S                  
BANGOR ME      FAIR      40  38  93 CALM      30.19F                  
CONCORD NH     FOG       38  38 100 CALM      30.18R VSB 1/2          
MANCHESTER NH  FAIR      44  42  93 CALM      30.16S                  
NASHUA NH      FAIR      41  41 100 W6        30.18S                  
PORTSMOUTH NH  MOCLDY    43  42  98 NW5       30.15F                  
JAFFREY NH     FAIR      39  37  92 CALM      30.18R                  
KEENE NH       FOG       40  40 100 CALM      30.17  VSB 1/4          
BURLINGTON VT  FAIR      44  41  89 S5        30.10F                  
MT. WASHINGTON CLOUDY    43  -8  11 SE13        N/A                   
$$

NYZ052-076-220600-
EASTERN NEW YORK
  
CITY           SKY/WX    TMP DP  RH WIND       PRES   REMARKS
ALBANY         MOCLDY    44  41  89 CALM      30.13S                  
NEW YORK CITY  MOCLDY    57  46  66 E6        30.12S                  
$$
 
ANZALL-220600-
MARINE OBSERVATIONS
  
STATION/POSITION TIME  TEMP    WIND        PRES    VSBY  WAVE
                       AIR SEA DIR/SP/G                  HT/PER
                 (UTC) (F)     (DEG/KT/KT) (MB)    (MI)  (FT/S)
BOSTON BUOY      0450   55 57   40/ 10/ 12 1020.0F         3/ 6
BUZZARDS BAY     0400   54      50/ 19/ 20 1020.0F
NANTUCKET SOUND  0440                      1020.1
MASS BAY-STELLWA 0404   55 56   40/  8/  8 1021.2   1 7/8  3/ 6
ISLE OF SHOALS   0400   53      40/  5/  6 1021.3F
S OF BLOCK IS    0500      60                N/A           7/ 9
$$

......................KEY.........................
  SKY/WX - SKY CONDITION/PRESENT WEATHER
  TMP    - TEMPERATURE IN FAHRENHEIT
  DWPT   - DEWPOINT IN FAHRENHEIT
  RH     - RELATIVE HUMIDITY IN PERCENT
  WIND   - DIRECTION AND SPEED IN MPH
  PRES   - MEAN SEA LEVEL PRESSURE IN INCHES OF HG
  WCI    - WIND CHILL INDEX
  VSB    - VISIBILITY IN MILES
  HX     - HEAT INDEX
  TC     - TEMPERATURE IN CELSIUS
  VRB    - VARIABLE WIND DIRECTION
  N/A    - NOT AVAILABLE
  
      

Other recent Regional Weather Roundups

Tue Oct 22, 2:10am

Tue Oct 22, 2:00am

Tue Oct 22, 1:00am

Tue Oct 22, 12:10am

Tue Oct 22, 12:00am

Mon Oct 21, 11:10pm

Mon Oct 21, 11:00pm

Mon Oct 21, 10:10pm

Mon Oct 21, 10:01pm

Mon Oct 21, 9:10pm

Mon Oct 21, 9:00pm

Mon Oct 21, 8:10pm

Mon Oct 21, 8:00pm

Mon Oct 21, 7:10pm

Mon Oct 21, 7:01pm

Mon Oct 21, 6:10pm

Mon Oct 21, 6:01pm

Mon Oct 21, 5:10pm

Mon Oct 21, 5:01pm

Mon Oct 21, 4:10pm

Mon Oct 21, 4:00pm

Mon Oct 21, 3:10pm

Mon Oct 21, 3:01pm

Mon Oct 21, 2:10pm

Mon Oct 21, 2:00pm

Mon Oct 21, 1:10pm

Mon Oct 21, 1:01pm

Mon Oct 21, 12:10pm

Mon Oct 21, 12:00pm

Mon Oct 21, 11:10am

Mon Oct 21, 11:00am

Mon Oct 21, 10:10am

Mon Oct 21, 10:00am

Mon Oct 21, 9:10am

Mon Oct 21, 9:00am

Mon Oct 21, 7:10am

Mon Oct 21, 7:00am

Mon Oct 21, 6:10am

Mon Oct 21, 6:00am

Mon Oct 21, 5:10am

Mon Oct 21, 5:00am

Mon Oct 21, 4:10am

Mon Oct 21, 4:00am

Mon Oct 21, 3:10am

Mon Oct 21, 3:00am

Mon Oct 21, 2:10am

Mon Oct 21, 2:01am

Mon Oct 21, 1:10am

Mon Oct 21, 1:00am

Mon Oct 21, 12:10am

Mon Oct 21, 12:00am

Sun Oct 20, 11:10pm

Sun Oct 20, 11:00pm

Sun Oct 20, 10:10pm

Sun Oct 20, 10:00pm

Sun Oct 20, 9:10pm

Sun Oct 20, 9:01pm

Sun Oct 20, 8:10pm

Sun Oct 20, 8:00pm

Sun Oct 20, 7:10pm

Sun Oct 20, 7:01pm

Sun Oct 20, 6:10pm

Sun Oct 20, 6:00pm

Sun Oct 20, 5:10pm

Sun Oct 20, 5:00pm

Sun Oct 20, 4:10pm

Sun Oct 20, 4:00pm

Sun Oct 20, 3:10pm

Sun Oct 20, 3:00pm

Sun Oct 20, 2:10pm

Sun Oct 20, 2:01pm

Sun Oct 20, 1:10pm

Sun Oct 20, 1:01pm

Sun Oct 20, 12:10pm

Sun Oct 20, 12:00pm

Sun Oct 20, 11:10am

Sun Oct 20, 11:00am

Sun Oct 20, 10:10am

Sun Oct 20, 10:00am

Sun Oct 20, 9:10am

Sun Oct 20, 9:00am

Sun Oct 20, 8:10am

Sun Oct 20, 8:00am

Sun Oct 20, 7:10am

Sun Oct 20, 7:00am

Sun Oct 20, 6:10am

Sun Oct 20, 6:00am

Sun Oct 20, 5:10am

Sun Oct 20, 5:00am

Sun Oct 20, 4:10am

Sun Oct 20, 4:00am

Sun Oct 20, 3:10am

Sun Oct 20, 3:00am

Sun Oct 20, 2:10am

Sun Oct 20, 2:00am

Sun Oct 20, 1:10am

Sun Oct 20, 1:00am

Sun Oct 20, 12:10am

Sun Oct 20, 12:00am

Sat Oct 19, 11:10pm

Sat Oct 19, 11:00pm

Sat Oct 19, 10:10pm

Sat Oct 19, 10:00pm

Sat Oct 19, 9:10pm

Sat Oct 19, 9:00pm

Sat Oct 19, 8:10pm

Sat Oct 19, 8:00pm

Sat Oct 19, 7:10pm

Sat Oct 19, 7:00pm

Sat Oct 19, 6:10pm

Sat Oct 19, 6:00pm

Sat Oct 19, 5:10pm

Sat Oct 19, 5:00pm

Sat Oct 19, 4:10pm

Sat Oct 19, 4:00pm

Sat Oct 19, 3:10pm

Sat Oct 19, 3:01pm

Sat Oct 19, 2:10pm

Sat Oct 19, 2:00pm

Sat Oct 19, 1:10pm

Sat Oct 19, 1:01pm

Sat Oct 19, 12:10pm

Sat Oct 19, 12:00pm

Sat Oct 19, 11:10am

Sat Oct 19, 11:01am

Sat Oct 19, 10:10am

Sat Oct 19, 10:00am

Sat Oct 19, 9:10am

Sat Oct 19, 9:00am

Sat Oct 19, 8:10am

Sat Oct 19, 8:00am

Sat Oct 19, 7:10am

Sat Oct 19, 7:00am

Sat Oct 19, 6:10am

Sat Oct 19, 6:00am

Sat Oct 19, 5:10am

Sat Oct 19, 5:00am

Sat Oct 19, 4:10am

Sat Oct 19, 4:00am

Sat Oct 19, 3:10am

Sat Oct 19, 3:00am

Meta data:

ID: a6a4717d-9299-400d-ba00-930e3bd10d00
Link: https://api.weather.gov/products/a6a4717d-9299-400d-ba00-930e3bd10d00